Dewpoint
3 1 3 3 3 5 6 6 3 2 -2 -1 -2 -2 -1 4 5 7 10 10 11 11 9 7 7 6 5 4 3 3 4 7 11 12 10 8 10 9 -6 -5 8 8 11 11 11 11 10 9 7
3 1 4 3 6 6 5 3 2 1 -1 -2 -2 -2 -0 9 10 10 10 10 11 9 8 5 4 3 2 0 -2 -4 -3 -2 1 6 10 10 9 0 -8 -8 2 5 7 10 10 10 10 9 8
3 1 4 4 5 7 5 2 -0 -2 -2 -2 -3 -2 4 8 8 7 10 11 11 9 6 4 3 1 -1 -1 -2 -5 -2 6 12 11 9 7 2 -6 -6 -8 -8 -3 3 9 10 9 9 1 -4
3 3 5 4 6 4 3 0 -1 -1 -2 -3 -1 -0 8 9 8 8 10 10 11 10 7 4 5 3 2 -0 -4 1 4 8 9 5 0 -3 -4 -3 -3 -4 -7 -7 -6 -5 -2 -4 -3 -0 3
4 5 4 5 4 2 0 -0 -0 -1 -2 -3 -2 1 7 9 10 9 9 9 10 10 7 4 6 6 4 1 -3 1 3 6 4 -3 -2 -1 -1 -1 -2 -1 -2 -2 -2 -2 -1 1 4 6 8
6 5 6 5 4 1 -1 -1 -2 -3 -3 -2 -1 5 8 9 10 9 10 11 12 10 9 7 7 8 6 3 -2 -3 -1 3 -1 2 4 2 3 2 0 -0 0 1 1 3 5 6 7 8 9
5 4 6 5 4 3 1 -1 -2 -2 -2 -2 -3 4 10 10 11 9 11 14 14 13 10 11 9 9 8 6 0 -3 -3 1 0 2 5 6 9 5 2 0 1 2 4 5 6 7 9 9 8
3 4 6 4 4 3 -0 -2 -2 -3 -2 -3 -2 10 10 9 11 12 13 14 14 14 14 14 13 10 10 7 3 -2 -5 -2 2 3 5 8 9 8 5 2 0 3 5 6 8 8 8 7 7
3 5 7 6 4 2 -0 -0 -1 -2 -2 -2 0 4 1 8 11 12 12 13 14 15 15 14 14 12 10 8 5 2 -3 -4 0 5 6 9 9 8 7 4 1 4 5 6 7 8 7 6 6
4 6 6 3 3 2 1 1 1 -1 -2 -1 1 4 9 10 11 11 12 13 14 15 14 14 13 13 10 9 6 4 0 -3 -3 3 5 8 9 9 9 5 1 4 6 7 8 7 7 7 7
4 6 4 4 4 3 2 2 2 1 -0 -0 3 8 10 11 11 11 11 11 12 13 14 13 13 12 10 10 8 6 3 -1 -3 1 5 7 7 7 8 7 2 4 6 8 8 8 7 8 7
5 3 3 3 3 3 2 2 3 3 1 1 2 3 8 11 11 11 11 11 11 12 12 13 13 13 13 11 10 9 5 2 -2 -1 3 5 6 6 6 7 2 3 6 7 7 7 7 7 7
4 3 3 2 2 2 1 2 3 3 2 2 2 2 1 1 4 11 11 11 11 11 11 12 12 12 13 13 12 10 6 6 3 -1 0 4 4 6 8 8 5 4 7 8 7 7 7 7 6
2 3 2 2 2 3 2 2 1 2 2 1 1 1 1 1 1 6 11 11 11 11 11 11 12 12 12 13 13 12 10 7 6 4 -0 -1 1 5 7 9 7 9 9 9 8 8 7 7 5
3 4 3 3 3 3 2 3 3 1 -0 0 0 0 -1 -1 0 1 2 3 5 7 12 12 11 12 11 11 12 12 12 11 9 9 8 6 2 4 7 7 8 10 10 9 8 8 8 8 -2
4 4 6 3 2 2 2 4 2 1 1 1 0 -1 -1 -2 -3 -1 1 1 2 2 3 10 12 12 11 11 11 12 12 12 9 11 11 10 9 7 6 7 9 10 10 9 8 8 8 7 -5
4 6 6 5 2 2 3 4 1 0 1 1 1 1 0 -0 -2 -1 -3 -0 1 2 2 1 9 12 11 11 12 11 11 12 10 11 12 11 11 9 7 8 9 10 10 8 8 8 8 5 -5
6 6 5 5 2 1 3 4 2 1 1 1 1 -0 -0 -1 0 -0 -1 -2 -2 1 1 1 1 7 11 10 10 11 11 12 10 11 12 12 11 11 9 9 10 10 10 8 8 8 8 -4 -3
4 5 5 2 -0 -0 0 0 -1 -2 -2 -2 -2 -2 -2 -2 -1 -1 0 -0 -0 -1 -2 -1 -2 -0 6 10 10 10 11 12 11 12 12 12 12 11 11 10 10 10 10 8 8 8 5 -4 -2
6 4 4 1 -0 -0 0 0 -1 -2 -2 -2 -3 -2 -2 -2 -2 -2 -1 -1 0 0 -0 -1 -2 -2 -0 8 9 9 8 10 11 11 12 12 12 11 11 10 10 10 10 9 9 8 -2 -3 -1
3 3 3 3 1 -1 -0 -2 -2 -3 -3 -4 -4 -3 -3 -4 -4 -6 -6 -3 -1 -0 0 -0 -1 -2 -2 1 8 9 10 9 9 10 12 11 11 11 10 10 10 10 9 9 9 7 -3 -2 -1
4 1 1 2 2 4 -0 4 1 -2 -3 -4 -5 -5 -4 -4 -4 -5 -5 -5 -3 -2 -2 -1 -1 0 1 1 6 8 9 9 9 8 9 11 11 10 9 11 11 11 9 9 9 7 -3 -1 -1
3 0 1 1 2 1 1 3 0 -2 -2 -5 -6 -6 -7 -7 -7 -6 -6 -5 -5 -4 -4 -3 -3 -2 -1 1 1 5 8 9 8 8 8 8 10 10 10 10 11 11 10 9 9 7 -2 -1 -0
0 0 1 2 1 1 1 2 -0 -2 -4 -6 -8 -8 -8 -8 -8 -7 -6 -4 -5 -5 -4 -4 -4 -4 -3 -2 1 1 3 8 9 9 8 7 9 9 10 10 11 11 10 10 9 6 -2 -1 -0
0 0 1 1 3 3 0 3 1 -2 -5 -7 -6 -7 -8 -7 -8 -6 -5 -4 -3 -3 -4 -4 -5 -4 -4 -4 -4 0 2 2 7 7 7 8 8 9 9 9 11 11 10 10 8 5 -1 -1 -0
2 1 1 1 4 3 0 4 -2 -4 -5 -7 -7 -7 -7 -7 -7 -6 -5 -5 -6 -6 -6 -5 -5 -5 -5 -5 -5 -4 -0 3 4 6 7 7 7 6 7 9 11 10 10 9 7 1 -1 -1 -1
3 2 0 2 1 0 1 -2 -7 -7 -7 -7 -6 -2 -3 -2 -2 -3 1 1 0 -1 -2 -3 -4 -5 -6 -4 -4 -4 -4 1 3 4 6 7 7 7 8 10 10 9 10 5 5 -1 -2 -1 -1
1 0 2 -1 -1 2 0 -0 -2 -5 -4 -5 -5 -4 -3 -3 -2 -1 -0 1 0 -3 -5 -6 -8 -6 -4 -0 -1 -3 -3 -2 4 4 6 7 8 9 10 10 9 7 8 5 0 -1 1 -3 -2
2 2 2 1 0 2 4 2 -5 -5 -4 -4 -4 -4 -3 -1 0 1 1 -1 0 -3 -4 -5 -7 -8 -6 -0 -1 -2 -2 4 7 8 7 7 9 10 10 10 8 4 5 2 -1 1 -0 -2 -3
0 1 1 0 -2 1 1 3 -4 -5 -4 -4 -3 -2 -0 2 3 3 3 1 1 -2 -4 -5 -6 -8 -8 1 -1 -1 3 8 10 8 8 9 10 10 10 8 4 3 1 -1 2 2 -4 -5 -5
Wind_Speed
8 6 5 2 3 4 3 6 3 8 6 3 4 6 3 1 3 3 9 14 9 19 21 20 20 21 19 17 15 14 12 12 12 10 7 6 5 2 4 7 12 13 18 16 14 11 8 4 1
8 6 4 1 4 1 5 4 8 7 16 9 5 4 4 1 2 7 16 14 6 15 22 20 21 20 18 17 15 13 13 13 12 11 9 7 5 5 8 10 13 15 17 15 14 11 8 4 2
9 7 4 4 3 6 5 4 3 7 4 5 2 6 5 3 6 10 6 16 15 16 20 21 21 20 19 17 14 13 13 15 15 11 8 6 9 10 10 12 12 14 15 15 12 9 6 3 8
8 5 3 4 8 7 7 4 4 13 11 1 3 5 4 6 9 10 9 15 16 20 22 22 22 21 18 15 15 16 15 16 13 10 10 13 12 11 12 12 13 13 13 11 10 9 9 10 12
12 4 2 3 8 6 6 8 17 9 9 5 4 3 3 6 5 10 11 15 17 21 21 22 22 20 18 15 15 16 15 15 13 14 14 13 12 11 11 11 12 12 13 12 12 11 12 12 11
7 3 2 8 6 5 8 15 10 9 19 4 3 7 3 7 10 11 14 16 16 18 22 20 21 18 16 14 13 13 13 14 15 15 14 12 11 10 11 11 11 11 11 11 12 12 10 9 8
5 4 5 5 6 7 11 4 6 12 18 10 6 5 6 11 16 14 16 16 16 14 21 20 19 17 15 14 14 14 12 13 14 15 13 12 9 9 10 10 10 10 10 11 10 8 7 6 5
7 4 3 5 6 7 7 3 9 12 18 14 8 7 5 16 21 22 19 18 18 16 17 17 17 18 16 15 14 14 13 13 14 15 13 12 10 10 10 9 9 9 10 10 7 6 4 4 4
10 3 4 5 7 4 7 4 11 14 8 6 5 13 8 18 21 27 24 23 21 20 19 17 17 19 17 16 16 15 14 14 15 16 14 13 11 12 11 9 9 9 9 8 6 5 3 3 3
6 5 8 5 5 3 8 3 9 8 6 1 9 11 17 19 21 29 28 28 27 25 22 18 17 20 19 19 19 18 17 17 16 17 17 16 13 13 11 10 10 10 10 8 7 5 3 4 3
5 5 8 7 12 8 5 12 5 3 5 4 4 19 20 21 23 27 27 28 28 25 23 21 17 18 21 22 19 19 18 17 17 18 18 18 16 15 13 13 11 11 10 9 7 6 5 4 4
3 9 13 5 16 10 4 10 3 8 7 4 2 7 11 20 25 28 30 30 29 27 26 23 21 20 20 21 23 21 21 20 20 21 21 21 19 16 15 13 12 11 10 10 8 7 6 5 5
3 3 10 14 17 10 12 9 9 11 17 17 13 8 9 13 22 27 27 29 27 27 28 27 24 24 23 21 20 21 23 22 20 21 23 23 21 18 17 14 13 12 12 11 10 8 7 7 7
2 14 12 13 9 6 7 8 13 5 12 24 25 22 18 14 13 21 26 29 29 29 29 29 27 25 25 24 24 21 21 23 23 23 23 25 23 20 18 17 16 14 12 10 10 9 8 8 8
7 5 3 6 5 4 4 15 8 18 26 29 33 31 30 27 23 24 22 23 23 24 37 35 31 29 27 27 26 24 23 22 25 22 22 23 23 21 19 20 20 16 13 11 12 11 10 10 10
5 3 2 4 4 7 9 19 3 12 21 28 30 30 28 30 31 32 32 30 29 25 23 38 41 36 31 30 29 28 25 23 28 23 23 23 21 22 22 23 21 18 17 14 14 12 12 11 9
1 2 4 7 8 6 9 2 10 29 27 21 25 28 30 28 33 34 39 39 38 36 31 28 36 45 37 34 32 30 29 27 29 26 24 24 22 23 24 24 21 20 19 17 15 13 13 12 10
6 4 3 5 3 1 7 8 11 15 11 21 25 29 31 32 33 32 33 33 41 44 42 38 33 35 43 39 34 35 33 31 28 28 27 27 25 24 26 24 22 23 22 21 18 15 14 12 10
2 2 2 4 3 5 7 5 10 19 17 20 29 31 38 39 39 34 27 27 31 37 39 39 37 37 40 45 40 38 37 35 32 31 32 31 30 29 26 27 26 27 26 22 19 17 16 14 11
2 2 5 6 2 3 7 15 16 14 20 26 32 36 35 41 43 41 35 31 29 25 29 41 39 37 40 44 45 44 40 39 37 36 36 35 35 32 31 28 30 30 28 26 23 18 18 16 13
4 4 2 4 6 1 8 12 8 6 13 20 31 37 33 39 43 44 43 40 40 37 32 26 34 41 39 41 45 46 44 39 39 40 38 38 39 36 32 29 30 30 31 28 23 20 19 17 15
4 3 4 4 4 4 5 6 6 8 10 8 15 12 21 27 30 30 31 33 39 37 34 33 32 29 31 29 41 46 46 45 44 44 42 43 44 39 35 34 33 32 31 29 25 22 21 19 16
3 5 4 2 3 4 2 2 8 4 8 8 7 8 9 17 25 25 23 22 24 31 34 33 31 33 31 31 34 37 47 48 46 47 45 45 45 42 39 37 37 32 33 30 28 25 24 21 18
7 5 6 4 3 2 4 5 5 4 4 2 3 12 15 12 13 20 22 19 17 18 21 28 34 35 30 33 36 37 38 48 48 48 47 45 45 44 43 40 40 37 36 33 30 26 25 23 19
6 6 3 4 1 6 1 3 9 9 10 4 8 24 14 10 13 14 16 13 9 10 13 16 18 22 31 32 31 38 42 40 48 49 47 46 45 45 46 44 43 41 37 35 32 28 27 24 20
3 5 4 4 3 4 2 6 6 7 14 9 9 10 13 13 14 11 14 17 18 18 19 20 22 23 26 32 34 34 40 42 43 47 46 43 45 42 45 46 45 41 37 37 33 29 29 25 21
3 2 3 2 2 3 4 7 9 5 3 7 11 19 23 25 24 10 10 11 14 15 15 17 20 25 23 32 35 34 36 40 41 43 46 43 42 41 44 44 41 38 39 37 33 32 27 24 18
4 5 3 3 1 4 5 5 6 4 4 5 7 13 19 27 29 24 20 18 13 10 10 12 13 18 22 25 33 32 33 37 39 41 47 41 42 41 42 40 37 39 39 36 32 28 24 23 18
3 3 2 3 4 3 4 6 5 3 2 4 7 20 24 32 31 35 36 28 22 17 14 16 18 21 22 23 28 32 31 34 40 44 39 39 38 38 36 37 38 39 37 33 28 24 20 19 15
4 5 5 4 3 2 2 7 7 6 1 8 28 28 30 35 33 34 35 29 21 16 15 16 19 23 25 26 27 31 28 28 36 34 33 34 31 32 35 38 39 37 33 28 25 20 20 17 13
Wind_Direction
245 237 262 292 58 67 252 258 282 301 331 207 133 103 148 79 209 214 144 158 149 174 171 171 170 168 169 169 170 172 176 180 180 189 196 187 176 182 126 125 144 148 137 135 136 139 148 150 209
226 228 236 155 105 135 258 237 251 252 254 254 127 94 111 143 155 153 153 178 193 183 175 173 168 167 166 166 166 164 170 171 174 175 172 181 178 135 122 124 132 149 152 152 155 165 181 211 276
215 210 171 141 160 205 224 228 237 303 259 235 89 63 126 177 176 173 177 175 182 184 182 174 166 166 166 165 162 156 155 155 157 169 182 178 145 127 120 119 126 145 161 169 172 185 212 182 125
197 185 145 127 224 251 219 211 346 327 295 73 108 66 107 220 175 179 181 175 186 183 185 176 168 168 168 162 157 154 151 153 159 170 167 143 133 127 122 117 118 126 141 155 160 153 133 122 115
192 169 136 197 244 260 266 258 278 287 290 226 175 147 140 168 199 196 187 178 181 181 185 176 172 171 169 165 160 156 153 155 158 154 149 144 138 132 126 122 121 122 126 130 130 127 121 116 112
176 172 122 217 224 256 275 268 262 254 273 239 156 127 153 170 185 195 190 185 182 187 185 181 176 173 172 168 165 163 158 159 160 158 154 151 148 141 134 131 129 128 128 129 129 127 122 118 112
161 119 206 197 231 256 254 286 220 249 254 230 163 108 161 163 176 186 194 196 184 192 186 183 185 183 179 176 174 174 173 169 167 167 166 167 166 159 146 141 138 137 136 136 133 128 123 118 117
201 115 203 225 197 246 248 270 289 282 245 230 187 157 185 187 170 175 193 204 201 198 198 198 196 194 190 187 181 184 185 182 178 177 175 177 177 177 167 154 149 148 147 145 141 140 137 127 135
202 126 216 224 178 225 251 7 318 301 257 190 132 164 199 180 168 180 190 202 204 204 206 212 213 211 204 197 190 189 195 192 188 185 185 182 183 181 176 168 164 162 161 159 162 165 164 162 159
176 174 219 207 220 273 295 313 319 328 244 103 131 160 168 172 178 188 189 197 200 206 212 216 228 218 212 205 200 196 197 199 196 192 190 187 185 180 182 180 177 176 178 176 183 185 192 192 209
192 199 221 258 273 281 329 315 315 295 271 46 185 161 170 181 190 191 198 209 214 214 217 223 226 220 223 215 210 207 205 204 200 197 196 196 194 192 190 191 191 190 191 194 199 199 213 233 258
199 211 224 232 255 278 275 280 253 260 245 266 130 173 197 196 198 203 202 208 215 221 228 228 226 223 224 224 226 222 214 210 206 203 202 206 203 200 197 196 201 200 204 209 207 217 232 252 264
223 258 242 244 268 273 281 246 248 232 257 262 272 253 222 221 229 215 213 210 216 227 230 235 230 225 227 224 224 226 221 219 215 211 209 214 215 210 209 205 215 206 207 212 221 227 236 255 275
225 222 252 265 252 254 248 254 248 241 254 266 266 269 264 244 225 223 222 221 221 226 231 234 232 232 232 229 227 231 231 226 219 214 212 218 218 219 216 218 219 206 208 225 231 237 244 264 275
243 166 285 232 236 246 286 273 222 246 263 263 268 271 272 269 246 238 232 231 232 234 230 233 233 231 235 236 235 236 235 233 218 211 209 217 218 219 221 223 218 213 221 227 232 239 247 262 271
134 73 210 261 253 248 190 253 240 239 253 263 271 269 271 270 266 247 240 242 237 247 242 233 231 230 234 235 235 236 238 237 224 215 212 215 217 219 221 216 218 218 224 231 231 241 246 257 262
56 172 209 299 222 229 184 276 249 253 248 251 266 271 266 268 258 261 250 240 239 240 245 245 239 228 231 235 234 238 238 238 226 219 221 220 220 218 217 220 221 222 228 235 237 240 241 246 248
200 191 210 225 284 318 261 256 269 266 251 245 254 267 264 264 255 255 254 247 241 239 242 247 250 242 235 233 238 236 235 237 231 222 225 229 227 224 221 223 226 226 234 234 235 237 240 237 237
172 189 213 256 283 339 275 269 268 274 271 262 264 259 261 261 255 261 260 254 252 244 240 248 250 247 241 230 233 235 234 230 227 225 228 233 229 229 228 223 227 231 238 235 235 233 229 228 228
280 311 298 292 266 317 299 287 274 258 257 246 249 257 255 263 262 260 257 254 253 251 246 244 247 251 244 237 234 239 233 231 231 227 226 234 235 233 229 228 228 231 233 228 231 232 228 225 222
188 163 231 261 322 69 322 275 258 281 263 259 251 250 255 257 263 261 256 251 248 248 249 250 245 247 246 241 237 235 235 233 230 229 223 231 239 234 237 227 228 231 232 232 233 232 229 230 225
156 105 105 45 39 266 40 291 299 280 293 279 275 266 262 263 263 265 263 256 248 251 253 252 249 250 246 235 235 234 230 230 229 233 229 226 232 236 237 233 228 232 232 231 232 232 229 229 232
162 109 89 63 32 8 270 243 276 287 290 294 288 219 298 291 266 265 265 266 264 256 251 253 250 250 249 245 241 238 236 235 234 233 233 231 234 233 236 236 229 233 232 229 230 231 228 229 232
150 75 46 50 64 337 242 178 284 268 250 266 334 296 297 291 299 264 261 270 262 256 254 248 249 248 249 253 250 246 240 239 235 234 231 233 233 234 233 234 231 231 231 226 227 228 228 230 231
84 69 358 355 273 231 200 186 248 270 275 292 319 301 305 285 300 268 248 211 212 223 230 235 242 248 245 251 256 251 246 244 241 238 235 230 232 232 234 233 231 224 231 224 223 226 226 228 232
164 136 153 235 235 286 317 240 250 229 274 317 350 331 329 319 306 264 224 228 236 238 244 246 255 266 257 247 246 252 250 246 243 239 237 237 236 240 238 232 227 220 220 221 221 220 219 222 227
204 128 180 102 358 24 256 292 296 334 89 29 21 39 22 11 4 310 243 238 242 246 247 251 258 261 271 254 248 251 255 245 241 242 238 235 237 241 235 231 224 220 220 218 219 215 215 224 227
134 152 67 5 283 274 278 276 242 307 10 22 16 359 348 337 327 322 309 291 281 266 257 260 271 278 270 268 250 249 257 250 240 236 235 234 238 238 232 230 222 217 220 219 214 212 216 220 224
140 169 153 126 153 207 307 269 222 207 63 337 319 321 317 318 311 306 303 293 266 262 280 286 284 285 274 257 247 250 255 247 234 227 230 235 235 230 232 225 218 217 219 212 208 213 213 235 232
150 174 153 127 264 240 188 267 286 283 357 281 320 314 312 308 301 300 296 284 262 265 277 292 300 290 276 259 246 244 246 237 224 225 230 227 227 228 224 217 214 215 209 206 213 207 213 232 244
Height
1524 1524 1525 1525 1535 1537 1539 1526 1512 1510 1507 1502 1500 1501 1503 1503 1506 1516 1504 1507 1508 1511 1513 1515 1517 1519 1521 1522 1524 1525 1526 1527 1528 1529 1529 1530 1530 1530 1530 1530 1531 1533 1535 1536 1537 1538 1540 1540 1540
1521 1523 1524 1524 1538 1544 1537 1516 1513 1508 1502 1502 1498 1499 1502 1505 1503 1504 1505 1507 1510 1512 1513 1515 1517 1519 1522 1523 1524 1524 1525 1527 1528 1528 1529 1530 1530 1530 1530 1530 1531 1533 1535 1536 1537 1538 1539 1540 1540
1519 1521 1523 1526 1537 1539 1531 1510 1507 1503 1500 1499 1497 1499 1502 1503 1503 1503 1504 1506 1509 1512 1514 1516 1517 1519 1521 1522 1524 1524 1525 1526 1528 1529 1530 1530 1531 1531 1532 1532 1531 1532 1534 1536 1537 1539 1539 1540 1540
1518 1521 1523 1530 1531 1520 1513 1507 1503 1503 1502 1498 1498 1500 1503 1502 1502 1503 1504 1506 1508 1511 1514 1516 1518 1520 1522 1523 1523 1524 1526 1527 1528 1530 1530 1531 1531 1533 1533 1533 1534 1534 1536 1537 1538 1539 1539 1540 1540
1517 1518 1526 1528 1523 1515 1507 1507 1507 1505 1505 1497 1497 1501 1501 1502 1503 1504 1504 1505 1507 1510 1514 1516 1518 1520 1522 1522 1523 1524 1525 1527 1529 1530 1531 1532 1533 1533 1535 1535 1535 1536 1537 1538 1539 1540 1540 1541 1541
1514 1515 1528 1526 1519 1511 1506 1505 1508 1506 1502 1498 1498 1499 1502 1502 1503 1504 1505 1506 1509 1511 1513 1516 1518 1521 1522 1523 1523 1524 1525 1526 1528 1530 1532 1533 1534 1535 1535 1536 1537 1537 1538 1539 1540 1540 1541 1541 1542
1511 1516 1521 1518 1516 1513 1505 1505 1505 1502 1499 1496 1496 1500 1502 1502 1502 1504 1506 1508 1511 1512 1513 1516 1518 1520 1522 1523 1524 1524 1525 1527 1528 1529 1531 1533 1535 1536 1536 1536 1538 1539 1539 1540 1541 1541 1542 1542 1542
1509 1511 1515 1513 1513 1510 1500 1502 1502 1500 1494 1494 1493 1497 1501 1500 1503 1505 1507 1509 1511 1513 1514 1516 1518 1519 1521 1522 1524 1524 1525 1527 1528 1530 1531 1533 1534 1535 1537 1537 1538 1539 1540 1540 1542 1542 1542 1542 1542
1507 1514 1517 1509 1510 1503 1497 1500 1499 1497 1494 1492 1491 1491 1493 1498 1502 1504 1507 1508 1510 1511 1512 1514 1516 1518 1520 1522 1523 1524 1525 1526 1527 1529 1531 1533 1534 1535 1536 1537 1538 1539 1540 1541 1541 1542 1542 1542 1542
1502 1510 1507 1500 1500 1500 1499 1500 1499 1496 1493 1493 1490 1491 1492 1495 1500 1501 1502 1505 1507 1508 1510 1513 1515 1516 1518 1520 1522 1523 1523 1524 1526 1527 1529 1531 1533 1534 1535 1537 1538 1538 1540 1540 1541 1541 1542 1542 1542
1498 1502 1498 1496 1498 1500 1498 1498 1500 1497 1495 1494 1493 1490 1492 1494 1496 1499 1501 1502 1503 1507 1510 1511 1514 1515 1516 1518 1520 1521 1523 1524 1525 1526 1528 1530 1531 1532 1533 1535 1537 1538 1539 1539 1540 1541 1541 1541 1541
1497 1494 1495 1496 1497 1498 1498 1497 1496 1496 1493 1492 1493 1493 1495 1495 1495 1496 1496 1499 1502 1504 1506 1509 1512 1513 1514 1516 1517 1518 1520 1521 1522 1524 1526 1527 1529 1530 1531 1533 1534 1536 1537 1538 1539 1540 1541 1541 1540
1493 1493 1494 1494 1494 1496 1496 1494 1494 1491 1491 1490 1491 1492 1493 1494 1495 1495 1497 1499 1500 1501 1503 1505 1507 1509 1510 1512 1514 1516 1517 1519 1521 1523 1523 1525 1527 1528 1529 1531 1533 1534 1535 1536 1537 1538 1539 1540 1539
1489 1491 1492 1492 1492 1494 1494 1491 1491 1486 1489 1487 1486 1488 1489 1490 1491 1493 1494 1496 1497 1499 1499 1501 1503 1505 1506 1508 1510 1513 1515 1516 1517 1519 1520 1522 1524 1526 1527 1529 1531 1533 1534 1535 1536 1536 1537 1537 1537
1488 1492 1492 1490 1489 1490 1491 1485 1482 1484 1484 1484 1482 1482 1482 1483 1486 1487 1489 1491 1493 1495 1497 1497 1498 1500 1501 1503 1505 1507 1511 1513 1514 1515 1517 1519 1520 1523 1525 1527 1528 1531 1532 1533 1534 1535 1535 1536 1535
1488 1492 1496 1488 1486 1486 1490 1479 1477 1479 1478 1478 1477 1478 1476 1476 1478 1481 1484 1485 1487 1489 1491 1492 1494 1495 1497 1498 1501 1502 1506 1508 1510 1513 1514 1515 1517 1520 1522 1524 1526 1529 1529 1531 1532 1533 1533 1533 1533
1489 1498 1496 1493 1482 1483 1485 1481 1472 1473 1474 1474 1474 1472 1471 1469 1469 1471 1474 1478 1480 1482 1485 1487 1488 1490 1492 1495 1497 1499 1501 1504 1506 1509 1511 1513 1515 1516 1519 1522 1525 1525 1527 1528 1530 1530 1531 1531 1531
1493 1495 1494 1493 1482 1480 1481 1480 1472 1470 1470 1469 1469 1467 1464 1463 1462 1465 1467 1469 1474 1476 1477 1480 1483 1485 1488 1492 1494 1495 1498 1499 1502 1503 1505 1508 1511 1513 1517 1519 1521 1522 1524 1526 1527 1528 1529 1530 1529
1484 1485 1489 1487 1481 1482 1480 1478 1474 1466 1464 1464 1460 1458 1457 1455 1456 1460 1461 1463 1465 1468 1470 1472 1475 1478 1481 1485 1487 1490 1492 1494 1496 1499 1501 1503 1506 1509 1512 1514 1517 1519 1522 1524 1524 1525 1526 1527 1527
1486 1488 1489 1485 1481 1482 1480 1474 1466 1461 1453 1453 1452 1450 1449 1449 1451 1452 1455 1457 1459 1460 1462 1465 1467 1471 1472 1476 1481 1483 1485 1488 1490 1494 1496 1499 1501 1503 1507 1510 1512 1516 1518 1520 1521 1522 1523 1524 1524
1485 1488 1489 1490 1485 1483 1482 1464 1458 1449 1445 1442 1440 1439 1442 1441 1441 1441 1444 1448 1451 1453 1455 1457 1460 1463 1465 1468 1472 1475 1480 1481 1484 1486 1489 1494 1496 1498 1502 1505 1508 1511 1513 1515 1518 1519 1520 1521 1521
1488 1484 1486 1489 1492 1499 1489 1489 1466 1452 1445 1437 1435 1436 1436 1435 1434 1434 1435 1437 1442 1445 1449 1451 1454 1455 1457 1461 1462 1464 1468 1471 1475 1479 1483 1487 1489 1492 1495 1499 1502 1505 1508 1511 1513 1514 1516 1517 1518
1486 1484 1487 1490 1496 1501 1494 1500 1469 1455 1445 1437 1431 1431 1432 1430 1430 1430 1431 1433 1435 1439 1442 1445 1447 1449 1451 1454 1455 1458 1460 1463 1468 1472 1476 1480 1484 1487 1490 1493 1496 1498 1501 1506 1509 1510 1512 1513 1514
1483 1486 1493 1497 1505 1523 1491 1491 1477 1454 1442 1434 1432 1432 1430 1429 1428 1427 1428 1430 1431 1433 1435 1437 1439 1441 1444 1446 1448 1450 1452 1454 1460 1464 1468 1472 1476 1480 1484 1487 1490 1492 1496 1499 1502 1505 1507 1509 1510
1484 1495 1521 1526 1517 1505 1485 1493 1474 1447 1439 1436 1436 1431 1429 1427 1426 1424 1425 1428 1430 1431 1432 1434 1435 1436 1439 1440 1439 1442 1443 1448 1451 1456 1460 1464 1469 1472 1476 1480 1482 1486 1490 1494 1496 1498 1502 1503 1505
1486 1492 1515 1507 1514 1503 1484 1478 1454 1439 1437 1436 1432 1431 1431 1431 1428 1427 1426 1426 1427 1428 1429 1430 1431 1431 1434 1433 1433 1434 1435 1440 1444 1449 1454 1459 1461 1465 1469 1473 1476 1481 1484 1488 1490 1492 1496 1497 1498
1488 1500 1495 1506 1507 1524 1489 1470 1449 1435 1435 1434 1435 1433 1432 1431 1429 1428 1428 1427 1425 1424 1423 1424 1425 1425 1426 1425 1425 1426 1428 1429 1436 1441 1446 1450 1455 1459 1462 1466 1471 1477 1479 1482 1484 1487 1491 1492 1493
1483 1488 1507 1523 1542 1508 1486 1479 1457 1440 1439 1438 1436 1435 1434 1432 1430 1430 1430 1428 1425 1422 1420 1419 1418 1418 1418 1417 1417 1419 1421 1424 1428 1433 1436 1442 1448 1452 1456 1461 1467 1472 1473 1477 1480 1484 1487 1490 1486
1487 1489 1491 1500 1511 1513 1500 1471 1444 1439 1440 1439 1439 1437 1434 1431 1427 1423 1421 1422 1422 1419 1417 1415 1412 1412 1411 1410 1410 1412 1414 1417 1421 1426 1432 1437 1442 1446 1451 1457 1462 1466 1469 1472 1477 1482 1483 1492 1486
1481 1486 1490 1512 1510 1509 1512 1471 1438 1438 1439 1439 1436 1434 1429 1426 1422 1418 1413 1412 1415 1414 1412 1409 1407 1405 1405 1405 1404 1406 1409 1412 1418 1422 1428 1433 1438 1443 1446 1451 1457 1461 1465 1470 1475 1473 1481 1489 1484